Temp
-7 -7 -8 -8 -7 -7 -6 -7 -6 -7 -7 -6 -6 -6 -6 -6 -6 -6 -6 -7 -6 -6 -6 -6 -6 -6 -6 -7 -7 -7 -6 -6 -6 -6 -6 -6 -7 -7 -7 -7 -7 -7 -7 -7
-5 -7 -8 -8 -7 -6 -7 -6 -7 -7 -6 -6 -7 -7 -6 -6 -6 -6 -7 -7 -7 -6 -6 -7 -7 -6 -6 -7 -7 -7 -6 -6 -6 -6 -6 -7 -7 -7 -7 -7 -7 -7 -7 -7
-5 -8 -8 -9 -7 -6 -7 -7 -7 -8 -7 -7 -7 -6 -7 -7 -6 -6 -7 -7 -7 -7 -7 -6 -7 -7 -6 -7 -7 -7 -7 -6 -6 -6 -6 -7 -7 -8 -8 -7 -7 -7 -7 -7
-6 -8 -8 -8 -7 -6 -7 -7 -6 -6 -6 -7 -7 -6 -7 -7 -7 -6 -6 -6 -7 -7 -7 -7 -7 -7 -8 -7 -7 -8 -7 -7 -6 -6 -6 -6 -7 -7 -7 -7 -7 -8 -7 -7
-6 -8 -8 -7 -7 -7 -7 -8 -7 -7 -6 -6 -7 -7 -5 -6 -7 -6 -6 -6 -5 -7 -7 -7 -7 -7 -7 -7 -7 -7 -7 -7 -7 -6 -6 -7 -7 -7 -7 -8 -8 -7 -7 -7
-5 -5 -6 -8 -6 -7 -7 -8 -8 -7 -7 -6 -7 -6 -6 -6 -5 -5 -5 -5 -6 -6 -7 -7 -7 -7 -7 -6 -7 -7 -7 -6 -6 -6 -5 -7 -8 -8 -8 -7 -7 -8 -8 -7
-5 -5 -7 -7 -6 -5 -7 -8 -8 -8 -7 -7 -6 -6 -6 -6 -5 -5 -6 -6 -7 -6 -7 -8 -7 -8 -8 -8 -7 -7 -7 -7 -5 -5 -6 -6 -8 -7 -7 -8 -8 -7 -8 -8
-5 -6 -7 -6 -6 -7 -7 -8 -8 -8 -8 -8 -7 -7 -7 -6 -5 -6 -6 -6 -6 -6 -6 -6 -7 -8 -8 -7 -7 -7 -7 -7 -6 -6 -6 -8 -3 -5 -7 -7 -7 -8 -7 -7
-5 -5 -7 -7 -7 -7 -8 -8 -8 -8 -8 -8 -7 -7 -6 -6 -6 -6 -6 -6 -6 -7 -7 -7 -7 -8 -7 -6 -8 -6 -6 -5 -6 -7 -7 -7 -7 -7 -8 -7 -6 -7 -7 -7
-5 -6 -7 -8 -8 -7 -8 -8 -8 -8 -8 -8 -8 -7 -7 -7 -6 -6 -6 -6 -7 -7 -8 -7 -6 -6 -7 -7 -6 -6 -6 -6 -6 -7 -7 -7 -8 -7 -7 -7 -7 -7 -7 -7
-6 -6 -8 -8 -8 -8 -8 -8 -8 -8 -8 -8 -7 -7 -7 -7 -7 -6 -6 -6 -7 -7 -7 -7 -6 -6 -6 -6 -6 -6 -6 -6 -6 -7 -6 -6 -7 -7 -6 -6 -7 -7 -7 -7
-6 -6 -7 -7 -8 -8 -8 -8 -8 -9 -8 -8 -8 -7 -7 -7 -7 -6 -6 -6 -6 -8 -8 -7 -7 -7 -6 -6 -6 -7 -7 -7 -7 -6 -6 -6 -6 -6 -7 -7 -7 -7 -7 -6
-7 -6 -8 -8 -8 -8 -8 -8 -8 -8 -7 -8 -8 -7 -8 -8 -7 -7 -6 -5 -6 -6 -6 -7 -7 -7 -6 -7 -7 -7 -7 -7 -6 -6 -6 -6 -6 -6 -6 -6 -6 -6 -6 -6
-8 -8 -7 -8 -8 -8 -8 -8 -8 -8 -8 -8 -8 -8 -8 -8 -8 -7 -7 -6 -6 -6 -6 -7 -7 -7 -7 -7 -8 -7 -7 -7 -7 -7 -7 -7 -6 -6 -6 -6 -6 -6 -7 -7
-8 -8 -8 -8 -8 -8 -8 -8 -8 -8 -8 -8 -8 -8 -8 -8 -8 -7 -7 -7 -7 -7 -7 -7 -7 -7 -7 -7 -8 -8 -8 -8 -7 -7 -7 -7 -7 -6 -6 -7 -7 -7 -7 -7
-9 -9 -9 -8 -8 -8 -8 -8 -8 -8 -8 -8 -8 -8 -8 -8 -8 -8 -7 -7 -7 -7 -7 -7 -8 -7 -7 -8 -8 -8 -8 -8 -8 -8 -7 -7 -7 -7 -7 -7 -7 -7 -8 -8
-9 -9 -8 -7 -7 -8 -8 -8 -8 -7 -8 -8 -8 -8 -8 -8 -8 -8 -7 -7 -8 -7 -7 -7 -8 -8 -8 -8 -8 -8 -8 -8 -8 -8 -8 -8 -8 -8 -8 -7 -8 -8 -8 -8
-9 -8 -8 -8 -7 -7 -7 -7 -8 -7 -8 -8 -8 -8 -8 -8 -8 -8 -8 -7 -8 -7 -7 -8 -8 -8 -8 -8 -9 -8 -8 -8 -8 -8 -8 -8 -8 -8 -8 -8 -8 -8 -8 -9
-9 -8 -9 -8 -7 -7 -7 -7 -8 -8 -8 -8 -8 -8 -8 -8 -8 -8 -8 -8 -7 -8 -8 -8 -8 -8 -8 -9 -9 -9 -8 -8 -9 -8 -8 -8 -8 -8 -8 -8 -9 -9 -9 -9
-9 -9 -9 -8 -8 -7 -8 -8 -8 -8 -8 -8 -8 -8 -8 -8 -8 -8 -8 -8 -8 -8 -8 -8 -8 -8 -9 -10 -9 -9 -9 -9 -9 -9 -8 -8 -8 -8 -9 -9 -9 -9 -10 -10
-9 -9 -9 -9 -8 -8 -8 -8 -8 -8 -8 -8 -9 -8 -8 -8 -8 -8 -9 -9 -9 -9 -8 -8 -9 -9 -9 -9 -9 -9 -9 -9 -8 -8 -9 -8 -9 -9 -9 -9 -10 -10 -10 -10
-10 -10 -10 -10 -9 -9 -9 -9 -8 -8 -8 -9 -9 -8 -9 -8 -8 -8 -8 -8 -8 -9 -8 -8 -8 -9 -9 -9 -9 -8 -8 -9 -9 -9 -9 -9 -9 -9 -9 -10 -10 -10 -10 -10
-10 -10 -10 -10 -10 -10 -9 -9 -9 -9 -9 -8 -9 -9 -9 -9 -8 -7 -8 -8 -8 -8 -8 -8 -8 -9 -9 -8 -8 -8 -9 -9 -9 -9 -9 -9 -9 -10 -10 -10 -10 -10 -10 -10
-10 -10 -10 -10 -10 -10 -9 -9 -9 -9 -8 -8 -8 -8 -9 -10 -9 -9 -8 -8 -8 -9 -9 -8 -8 -9 -8 -8 -8 -8 -9 -9 -9 -9 -9 -9 -10 -10 -10 -10 -10 -11 -11 -11
-11 -10 -10 -10 -10 -10 -10 -10 -9 -9 -9 -9 -9 -9 -9 -9 -9 -9 -9 -9 -8 -8 -8 -8 -9 -9 -9 -9 -8 -8 -8 -9 -9 -9 -10 -10 -10 -11 -11 -11 -11 -11 -11 -11
-10 -10 -10 -10 -10 -10 -10 -10 -9 -9 -9 -9 -10 -9 -10 -9 -9 -9 -9 -9 -9 -9 -9 -9 -9 -9 -9 -9 -8 -8 -9 -10 -10 -10 -10 -10 -11 -11 -11 -10 -10 -11 -11 -11
Height
5894 5895 5898 5901 5904 5904 5903 5905 5906 5904 5903 5905 5905 5902 5901 5902 5902 5902 5901 5901 5901 5900 5900 5897 5898 5898 5895 5896 5896 5897 5896 5893 5892 5890 5890 5888 5887 5885 5884 5883 5882 5881 5880 5880
5892 5895 5898 5899 5904 5903 5902 5904 5906 5907 5906 5906 5906 5905 5903 5901 5901 5902 5902 5902 5900 5901 5900 5899 5899 5899 5895 5897 5897 5896 5895 5894 5892 5890 5888 5885 5885 5885 5883 5882 5882 5881 5881 5880
5890 5896 5895 5898 5903 5902 5905 5903 5903 5906 5907 5907 5907 5908 5905 5903 5901 5900 5901 5902 5900 5900 5899 5899 5898 5898 5897 5896 5895 5894 5893 5892 5890 5887 5885 5882 5882 5882 5882 5881 5880 5879 5879 5878
5890 5892 5895 5896 5901 5903 5904 5903 5902 5903 5903 5904 5906 5909 5907 5905 5904 5903 5901 5901 5900 5899 5899 5899 5898 5895 5895 5896 5894 5892 5893 5892 5889 5886 5883 5881 5880 5878 5876 5875 5876 5878 5878 5877
5887 5888 5891 5894 5899 5901 5903 5902 5902 5903 5903 5903 5905 5907 5908 5906 5904 5902 5901 5901 5900 5899 5900 5898 5897 5897 5895 5895 5891 5891 5893 5891 5889 5885 5883 5883 5881 5878 5876 5874 5871 5872 5874 5874
5882 5885 5888 5892 5895 5897 5900 5900 5900 5900 5900 5901 5902 5904 5905 5903 5902 5900 5900 5901 5900 5898 5898 5900 5896 5896 5895 5895 5893 5888 5888 5890 5886 5883 5879 5878 5877 5875 5874 5874 5873 5871 5869 5869
5879 5882 5887 5889 5892 5894 5896 5899 5899 5898 5899 5899 5900 5901 5902 5900 5897 5894 5900 5897 5898 5898 5898 5895 5897 5893 5895 5893 5891 5886 5886 5883 5878 5877 5881 5881 5869 5861 5866 5868 5869 5866 5865 5867
5876 5880 5886 5888 5891 5893 5894 5896 5897 5898 5898 5898 5897 5897 5898 5897 5893 5889 5894 5896 5897 5897 5896 5895 5891 5891 5891 5891 5889 5886 5882 5878 5872 5872 5877 5872 5842 5836 5859 5860 5862 5864 5863 5865
5874 5877 5883 5886 5887 5889 5890 5892 5896 5896 5897 5896 5896 5897 5898 5897 5894 5890 5889 5890 5892 5892 5890 5890 5888 5890 5890 5888 5889 5886 5881 5880 5877 5872 5871 5862 5853 5855 5851 5847 5853 5861 5860 5861
5871 5875 5879 5884 5886 5887 5889 5891 5891 5894 5894 5894 5894 5895 5895 5896 5895 5890 5888 5888 5888 5888 5887 5887 5889 5890 5890 5887 5887 5882 5880 5878 5872 5868 5866 5865 5863 5858 5857 5857 5859 5859 5859 5857
5866 5870 5876 5879 5881 5885 5886 5887 5888 5890 5891 5891 5892 5893 5893 5893 5892 5892 5891 5888 5885 5886 5886 5887 5886 5885 5886 5884 5881 5879 5878 5877 5873 5867 5866 5864 5861 5858 5858 5858 5857 5857 5855 5852
5864 5866 5869 5873 5879 5881 5882 5884 5884 5884 5887 5888 5889 5891 5891 5891 5889 5891 5891 5886 5884 5884 5885 5885 5884 5883 5882 5880 5877 5875 5875 5874 5871 5869 5864 5863 5859 5854 5853 5853 5852 5851 5851 5849
5858 5862 5864 5868 5873 5876 5879 5880 5882 5882 5883 5883 5884 5887 5888 5888 5886 5887 5886 5885 5883 5883 5883 5881 5882 5880 5877 5874 5872 5874 5875 5872 5870 5868 5867 5865 5860 5856 5854 5852 5850 5848 5845 5843
5854 5857 5861 5865 5870 5873 5873 5875 5877 5877 5878 5879 5879 5882 5884 5884 5883 5884 5885 5884 5883 5881 5880 5878 5876 5875 5873 5872 5871 5870 5867 5865 5864 5863 5862 5860 5857 5854 5851 5848 5845 5842 5838 5834
5849 5853 5856 5860 5864 5865 5868 5871 5872 5873 5874 5875 5876 5877 5880 5882 5880 5881 5882 5881 5878 5876 5874 5872 5871 5869 5869 5868 5867 5864 5863 5859 5857 5858 5857 5853 5850 5847 5844 5841 5838 5834 5831 5827
5846 5849 5851 5852 5857 5858 5861 5865 5868 5869 5870 5871 5872 5873 5874 5876 5877 5878 5879 5877 5874 5871 5868 5866 5865 5865 5865 5864 5860 5859 5856 5855 5856 5854 5850 5848 5844 5841 5838 5835 5831 5827 5824 5820
5841 5843 5845 5847 5850 5851 5853 5860 5864 5865 5865 5866 5867 5870 5871 5872 5872 5874 5874 5873 5870 5868 5864 5862 5861 5862 5859 5857 5857 5856 5855 5855 5853 5849 5846 5842 5839 5836 5833 5829 5825 5821 5818 5814
5837 5838 5841 5842 5844 5844 5850 5855 5857 5858 5860 5861 5863 5865 5866 5869 5869 5868 5869 5869 5867 5865 5862 5860 5860 5857 5856 5855 5854 5854 5852 5850 5848 5843 5840 5837 5833 5830 5826 5822 5818 5814 5809 5806
5832 5834 5835 5836 5838 5840 5845 5849 5851 5852 5855 5857 5859 5860 5861 5863 5864 5864 5864 5863 5862 5858 5857 5857 5856 5855 5852 5851 5850 5848 5847 5844 5843 5839 5835 5831 5826 5822 5818 5814 5809 5805 5801 5797
5827 5829 5831 5832 5832 5834 5838 5841 5845 5847 5848 5853 5854 5856 5857 5859 5859 5859 5858 5858 5855 5853 5853 5851 5850 5849 5848 5847 5846 5843 5840 5838 5836 5833 5827 5822 5817 5813 5809 5806 5801 5796 5792 5788
5821 5822 5823 5826 5827 5829 5831 5834 5837 5842 5848 5847 5849 5851 5852 5854 5854 5855 5855 5856 5852 5852 5852 5848 5846 5846 5847 5845 5842 5840 5837 5833 5830 5826 5820 5814 5810 5806 5801 5797 5792 5788 5784 5780
5814 5817 5818 5819 5821 5823 5826 5830 5832 5835 5837 5840 5843 5846 5847 5849 5849 5851 5850 5849 5848 5847 5848 5846 5844 5843 5843 5840 5837 5834 5829 5825 5821 5817 5811 5807 5803 5798 5793 5788 5784 5780 5775 5771
5808 5809 5812 5815 5815 5815 5818 5824 5827 5828 5830 5834 5838 5840 5840 5840 5843 5843 5843 5842 5841 5842 5841 5839 5838 5837 5836 5833 5830 5827 5821 5817 5812 5808 5804 5800 5796 5791 5786 5780 5776 5771 5767 5761
5796 5800 5803 5807 5810 5810 5812 5816 5819 5821 5825 5828 5831 5833 5833 5833 5836 5839 5838 5838 5837 5837 5837 5833 5831 5829 5828 5825 5821 5816 5812 5807 5803 5799 5796 5791 5787 5782 5777 5772 5767 5762 5757 5752
5788 5792 5796 5800 5804 5806 5806 5807 5812 5815 5817 5821 5823 5824 5825 5827 5828 5831 5831 5832 5830 5828 5827 5826 5824 5823 5821 5814 5811 5806 5800 5797 5794 5791 5787 5783 5779 5773 5769 5765 5759 5753 5748 5742
5782 5785 5790 5793 5796 5799 5801 5801 5802 5804 5810 5812 5814 5816 5818 5818 5819 5819 5821 5822 5821 5820 5821 5821 5817 5814 5806 5803 5802 5797 5793 5790 5787 5784 5781 5776 5771 5766 5760 5755 5750 5744 5737 5730
Wind_Speed
18 20 14 8 11 5 4 1 5 8 11 6 14 16 9 7 4 2 3 5 5 8 10 7 7 8 13 11 10 8 5 5 4 5 4 5 6 6 4 5 7 6 3 8
16 18 13 16 10 2 1 3 12 5 5 4 8 16 7 4 0 4 2 3 2 3 3 5 3 6 16 13 9 8 8 8 8 6 5 5 4 4 3 4 5 5 4 4
12 19 24 21 10 2 9 13 15 8 1 2 4 3 7 10 6 10 7 5 4 1 4 3 5 4 6 8 7 6 6 5 5 7 7 5 2 2 1 3 4 3 3 5
13 26 28 25 17 10 11 11 13 13 11 6 2 5 2 4 8 10 8 8 10 8 7 3 5 4 5 4 4 3 4 7 7 5 4 4 2 3 3 4 6 7 7 8
19 28 32 25 17 13 4 10 10 7 10 7 8 4 9 3 7 12 15 14 10 12 14 12 9 7 5 5 3 1 7 9 10 11 9 7 8 8 9 9 9 9 10 11
21 25 29 25 20 12 5 12 7 6 10 7 8 10 8 11 15 12 13 20 17 13 13 16 16 13 12 8 5 6 11 17 16 11 11 12 10 14 15 12 10 12 12 11
23 23 25 28 25 17 12 9 8 11 12 13 12 11 10 17 17 13 11 11 13 12 9 16 17 14 14 10 8 11 8 8 20 11 13 16 16 19 14 14 15 21 14 10
25 26 27 26 22 12 10 8 11 10 13 18 18 19 18 12 18 15 7 14 6 4 5 7 8 12 14 14 10 9 10 7 20 16 22 24 41 29 18 18 7 12 8 9
26 24 25 26 24 19 14 8 7 11 7 15 18 22 21 7 14 14 7 11 11 10 16 4 4 6 13 13 11 12 10 12 15 15 14 26 26 24 31 17 12 14 13 16
23 21 24 25 27 21 13 10 11 8 13 13 10 11 5 3 11 5 7 9 12 3 9 7 8 5 5 9 9 7 8 8 12 16 18 18 19 19 20 19 16 18 21 22
24 23 29 27 28 19 15 15 11 7 11 13 11 8 10 11 14 5 11 9 2 3 7 8 7 5 5 4 5 7 7 7 10 14 17 20 21 18 18 18 18 20 22 23
25 25 28 28 24 24 24 20 18 23 22 19 17 9 10 15 14 11 10 5 6 5 6 11 9 7 7 6 6 7 9 10 12 13 16 19 22 23 23 23 22 22 23 25
21 24 29 29 33 30 20 21 18 19 21 25 20 18 13 14 22 13 8 5 7 8 9 10 10 10 9 10 10 11 11 11 13 15 18 20 20 20 22 25 26 27 28 29
23 22 27 34 31 30 27 27 25 23 23 17 20 19 15 18 21 18 8 8 12 13 13 11 14 16 11 11 11 12 13 15 17 20 21 21 22 23 24 26 28 30 30 31
24 23 22 27 32 36 34 31 30 26 22 22 18 21 21 13 22 19 20 15 14 15 16 13 13 16 14 14 15 16 17 18 20 22 23 23 24 26 29 29 30 32 32 32
23 20 24 29 32 39 39 35 32 32 29 27 20 18 14 19 18 17 14 21 23 24 20 14 14 16 16 18 20 23 21 22 21 22 23 26 27 27 28 30 32 34 34 35
29 30 28 29 30 43 44 39 31 28 30 28 26 17 19 18 18 14 15 19 18 21 19 18 17 19 20 20 20 21 21 21 21 21 23 25 26 28 30 32 33 33 33 34
34 33 27 25 28 41 40 36 31 26 29 28 25 20 15 15 17 18 17 20 15 16 14 16 21 19 20 20 22 23 23 23 21 21 26 27 29 30 32 32 33 34 35 34
38 35 30 26 27 30 41 37 31 30 32 29 25 22 13 14 15 18 21 22 25 25 14 17 22 23 22 23 23 23 26 28 28 32 36 34 32 33 34 35 35 35 35 34
42 39 33 30 28 30 30 39 32 35 36 29 27 24 19 18 19 22 25 25 29 24 20 20 23 24 26 23 24 27 31 33 36 37 36 35 34 36 36 37 36 36 35 35
42 42 36 32 31 30 30 35 36 38 35 30 25 24 22 22 25 23 19 19 23 19 26 20 20 23 26 25 26 28 29 31 35 37 35 34 36 37 37 37 37 36 36 35
45 46 43 40 35 34 31 28 32 37 37 37 32 28 20 24 14 17 23 22 24 17 19 16 13 14 20 26 27 30 29 30 32 34 33 35 36 37 37 37 37 36 36 38
47 44 47 44 39 39 37 31 28 29 33 41 39 33 23 26 25 28 21 19 21 24 29 17 20 22 23 23 28 30 31 33 34 35 35 35 36 37 37 36 35 37 39 40
40 47 47 48 44 43 39 34 30 27 27 27 40 35 29 28 21 23 21 25 15 18 21 20 21 22 25 27 30 33 37 38 37 36 37 37 38 37 36 35 37 40 42 44
41 36 44 47 47 44 41 41 35 33 31 30 31 36 36 32 26 15 14 14 18 19 19 21 23 27 29 32 37 40 41 38 38 37 38 38 38 35 35 38 40 41 43 44
34 35 40 43 45 44 45 41 40 40 39 32 33 33 31 36 41 28 17 19 20 16 20 22 23 28 30 35 40 40 37 34 35 37 38 37 34 36 38 39 41 43 46 49
Wind_Direction
205 227 226 199 214 248 320 1 164 132 132 75 64 42 106 106 91 53 38 51 52 66 53 60 94 72 66 58 81 96 74 83 76 61 56 66 64 60 59 10 21 21 300 264
223 215 193 225 214 220 161 221 179 205 214 119 88 47 50 314 197 135 44 337 59 336 99 105 75 82 89 77 70 60 52 56 75 71 57 52 62 56 38 1 16 7 338 341
231 187 207 228 193 225 88 138 176 193 244 240 171 56 10 13 312 237 232 230 224 241 275 157 138 127 105 99 82 48 29 28 33 42 45 46 27 26 34 320 305 291 288 265
186 197 210 226 197 197 152 153 167 180 186 196 283 358 54 358 13 249 243 229 239 235 246 225 213 186 146 156 115 56 337 337 343 22 19 357 332 268 258 248 261 283 283 282
200 200 209 214 217 231 215 147 204 185 229 241 276 297 244 303 339 313 280 294 279 247 251 231 228 248 221 234 159 13 343 335 324 317 346 335 300 263 256 253 248 257 273 283
215 219 213 211 206 182 172 162 204 231 244 255 273 291 277 301 319 303 305 280 291 252 265 280 239 236 245 261 297 327 307 299 300 303 286 296 290 276 273 277 288 287 274 277
231 227 207 216 226 219 183 193 235 272 275 278 278 301 335 336 341 319 347 324 279 225 320 289 279 293 246 270 328 342 318 316 291 302 289 292 262 253 255 260 268 277 247 264
230 221 210 225 238 215 210 244 272 282 281 284 281 293 311 356 8 348 346 38 33 9 329 324 167 188 233 261 290 318 338 310 305 321 303 294 277 251 265 249 295 11 15 330
228 226 214 230 229 223 217 229 293 286 277 275 279 278 294 283 2 344 292 353 342 334 319 291 211 204 240 224 270 294 318 316 313 301 303 310 330 346 352 356 334 329 340 326
219 217 216 218 226 226 224 225 235 270 268 267 286 283 266 357 345 332 352 324 309 302 313 271 171 198 212 220 251 291 330 331 325 327 324 319 318 330 336 331 325 323 323 320
215 205 212 219 221 211 219 218 229 269 292 311 263 270 308 328 351 31 343 317 280 215 280 225 221 234 223 258 322 333 327 329 323 325 313 316 311 316 317 312 310 308 312 314
217 212 208 206 206 205 226 230 230 248 259 267 281 259 299 314 317 315 348 10 28 219 246 248 256 252 271 307 328 340 330 333 323 315 316 310 311 316 314 310 308 305 303 304
211 208 200 204 206 210 224 240 248 269 263 254 264 266 287 304 311 319 358 359 10 339 298 266 268 278 300 322 335 321 304 315 325 318 308 301 300 301 301 304 305 305 305 306
206 218 208 211 211 211 226 232 243 248 246 270 272 267 263 284 303 310 335 318 303 298 297 295 295 293 301 313 305 300 309 314 314 310 306 303 304 304 304 304 305 305 307 309
213 226 228 220 212 215 222 231 243 242 244 263 275 263 270 295 281 290 310 309 311 305 294 301 300 300 299 302 304 309 310 307 309 305 302 303 305 308 308 309 308 307 307 307
219 228 240 244 216 215 219 229 230 236 242 244 258 270 235 263 277 299 296 300 304 311 309 317 307 304 307 310 312 307 306 306 305 305 306 308 309 307 305 304 304 305 305 305
223 231 240 245 228 220 224 227 233 248 233 239 246 247 251 276 277 299 301 316 325 308 307 320 305 301 307 305 296 297 298 297 302 311 307 304 302 301 300 300 301 301 300 300
232 240 245 253 235 230 230 230 236 237 224 233 241 248 241 265 280 293 303 315 302 318 309 321 304 301 295 294 294 296 292 292 291 305 306 305 300 299 299 299 301 302 302 302
233 243 245 251 244 237 232 232 237 233 226 228 234 240 262 270 285 289 302 298 302 296 289 297 294 291 286 282 283 287 288 287 289 296 304 305 302 302 303 305 305 304 303 302
239 250 248 244 243 234 228 232 234 230 232 231 239 242 259 273 275 284 292 306 302 270 276 288 287 283 283 287 290 291 292 293 294 295 300 302 305 307 307 306 304 303 301 300
239 244 250 248 247 244 232 230 232 227 236 243 248 251 256 255 261 266 277 283 331 305 285 283 280 278 281 291 296 296 297 298 300 297 299 307 308 305 306 305 303 302 300 299
235 234 242 250 252 253 250 238 229 226 234 243 246 246 263 261 280 276 300 323 315 280 275 272 279 284 297 300 299 299 299 301 302 304 308 306 305 306 305 303 303 302 301 301
235 236 237 243 245 248 250 253 244 237 239 242 246 250 252 261 252 274 313 318 312 277 261 270 286 296 302 307 306 307 312 310 310 310 309 307 306 305 303 303 304 303 302 301
237 235 237 236 242 251 255 256 249 250 249 248 248 254 257 264 269 268 276 290 290 268 276 286 287 293 303 308 310 316 316 314 313 311 309 308 307 307 307 308 307 305 305 306
237 238 240 241 243 247 256 261 262 262 261 269 264 255 260 268 246 244 259 264 272 290 289 292 294 294 302 314 315 313 314 314 311 310 309 307 307 308 309 309 307 307 308 308
245 252 247 246 248 249 250 261 265 269 264 268 272 269 259 260 263 247 225 253 263 276 284 288 299 305 317 319 312 310 310 309 308 308 306 307 307 309 309 310 310 310 310 308